Regional Weather Roundup
Issued by NWS

Home | Current Version | Previous Version | Text Only | Print | Product List | Glossary Off
Versions: 1 2 3 4 5 6 7 8 9 10 11 12 13 14 15 16 17 18 19 20 21 22 23 24 25 26 27 28 29 30 31 32 33 34 35 36 37 38 39 40 41 42 43 44 45 46 47 48 49 50

000
ASUS43 KMKX 290300
RWRWI

WISCONSIN REGIONAL WEATHER ROUNDUP
NATIONAL WEATHER SERVICE MILWAUKEE/SULLIVAN WI
1000 PM CDT TUE JUL 28 2015

NOTE: "FAIR" INDICATES FEW OR NO CLOUDS BELOW 12,000 FEET WITH NO
SIGNIFICANT WEATHER AND/OR OBSTRUCTIONS TO VISIBILITY.

WIZ001-002-006>008-014>016-023>028-290400-
NORTHWEST WISCONSIN

CITY           SKY/WX    TMP DP  RH WIND       PRES   REMARKS
SUPERIOR ARPT  CLOUDY    75  70  84 SW7       29.77R
ASHLAND        CLOUDY    79  71  76 S6        29.79S HX  82
HAYWARD        CLOUDY    77  70  79 S6        29.82F
SIREN          MOCLDY    72  67  87 SW6       29.83S
CUMBERLAND     CLOUDY    75  70  83 SW9       29.85R
RICE LAKE      CLOUDY    77  71  82 S6        29.86R
CHETEK         CLOUDY    76  74  92 MISG      29.85R
LADYSMITH      CLOUDY    78  72  83 S5        29.87S HX  80
EAU CLAIRE     NOT AVBL
MENOMONIE      CLOUDY    79  71  78 SW9       29.86R HX  82
NEW RICHMOND   CLOUDY    77  71  82 W10G17    29.87R
OSCEOLA        CLEAR     76  61  59 W12       29.89R
$$

WIZ003>005-009-010-017-018-290400-
NORTH CENTRAL WISCONSIN

CITY           SKY/WX    TMP DP  RH WIND       PRES   REMARKS
MANITOWISH WTR CLOUDY    75  70  84 S6        29.88S
ARBOR VITAE    CLOUDY    77  70  79 S6        29.88F
WOODRUFF       CLOUDY    77  70  79 S6        29.88F
RHINELANDER    CLEAR     75  68  78 S7        29.90F
EAGLE RIVER    PTCLDY    74  65  74 S3        29.90S
LAND O LAKES   MOCLDY    75  66  73 S5        29.90F
PHILLIPS       CLOUDY    75  71  86 S9        29.87S
TOMAHAWK       CLEAR     71  68  89 CALM      29.90S
MEDFORD        CLOUDY    73  71  94 S7        29.90R
MERRILL        NOT AVBL
$$

WIZ029-030-035-036-043>047-290400-
CENTRAL WISCONSIN

CITY           SKY/WX    TMP DP  RH WIND       PRES   REMARKS
WAUSAU         MOCLDY    77  71  82 S8        29.88S
MOSINEE        CLEAR     73  72  94 S7        29.91S
MARSHFIELD     CLOUDY    75  68  78 S7        29.90R
STEVENS POINT  MOCLDY    75  68  79 SW5       29.91R
WAUPACA        PTCLDY    78  74  89 SE3       29.90S
WAUTOMA        NOT AVBL
WISC RAPIDS    CLOUDY    77  69  76 S6        29.91R
CAMP DOUGLAS   NOT AVBL
$$

WIZ011>013-019>022-031-037>040-048>050-290400-
NORTHEAST WISCONSIN

CITY           SKY/WX    TMP DP  RH WIND       PRES   REMARKS
ANTIGO         PTCLDY    71  68  91 S5        29.92F
SHAWANO        MOCLDY    77  67  71 S3        29.90S
OCONTO         PTCLDY    75  68  78 S3        29.89F
STURGEON BAY   PTCLDY    72  63  73 S10       29.93F
GREEN BAY      PTCLDY    74  67  78 S7        29.90F
MANITOWOC      NOT AVBL
APPLETON       MOCLDY    75  66  73 VRB6      29.91S
CLINTONVILLE   PTCLDY    73  64  73 S5        29.89S
OSHKOSH        PTCLDY    74  69  85 S7        29.90F
$$

WIZ032>034-041-042-053>061-290400-
SOUTHWEST WISCONSIN

CITY           SKY/WX    TMP DP  RH WIND       PRES   REMARKS
LA CROSSE      CLOUDY    78  70  76 S9        29.88R HX  80
SPARTA         CLOUDY    76  70  80 SW3       29.91R
VIROQUA        CLOUDY    74  73  98 SW6       29.94R
BOSCOBEL       CLOUDY    75  71  87 CALM      29.91R
PRAIRIE DU CHI CLOUDY    74  70  86 CALM      29.90S
PLATTEVILLE    CLOUDY    76  75  96 CALM      29.92S
$$

WIZ056-057-062-063-064-067-068-290400-
SOUTH CENTRAL WISCONSIN

CITY           SKY/WX    TMP DP  RH WIND       PRES   REMARKS
REEDSBURG      MOCLDY    75  71  87 W5        29.92R
BARABOO/DELLS  MOCLDY    74  69  83 CALM      29.91F
LONE ROCK      NOT AVBL
MINERAL POINT  CLOUDY    77  73  88 CALM      29.94R
MADISON        MOCLDY    80  72  76 S6        29.90F HX  84
MIDDLETON      MOCLDY    78  72  79 S3        29.91F HX  81
WATERTOWN      PTCLDY    76  76 100 SE3       29.92S
MONROE         CLOUDY    75  72  88 S6        29.92F
JANESVILLE     MOCLDY    77  75  94 SE3       29.90F
$$

WIZ051-052-058>065-066-070>072-290400-
SOUTHEAST WISCONSIN

CITY           SKY/WX    TMP DP  RH WIND       PRES   REMARKS
MILWAUKEE      MOCLDY    76  67  73 SE3       29.93S
WAUKESHA       PTCLDY    75  68  78 S6        29.95S
MILWAUKEE/TIMM PTCLDY    79  64  61 S5        29.94  HX  81
RACINE         PTCLDY    77  68  73 S3        29.95S
BURLINGTON     CLEAR     72  69  92 CALM      29.94S
KENOSHA        CLEAR     75  69  81 CALM      29.94S
FOND DU LAC    PTCLDY    75  71  87 S7        29.91F
SHEBOYGAN      PTCLDY    71  67  87 S5        29.93S
WEST BEND      PTCLDY    73  66  78 CALM      29.94S
JUNEAU         PTCLDY    77  72  84 S6        29.94S
$$

LSZ147-162-290400-
LAKE SUPERIOR

STATION/POSITION TIME  TEMP    WIND        PRES    WAVE
                       AIR SEA DIR/SP/G            HT/PER
                 (UTC) (F)     (DEG/KT/KT) (MB)    (FT/S)
W MID LAKE BUOY  0150   69 62  170/ 10/ 12 1007.9R   1/ 3
DEVILS ISLAND    0200   80     180/  9/ 14 1007.0F
PORT WING        0240   80     190/  9/ 11 1008.1R
SAXON HARBOR     0200   79                 1008.8R
$$

LMZ867-665-643>646-290400-
LAKE MICHIGAN

STATION/POSITION TIME  TEMP    WIND        PRES    WAVE
                       AIR SEA DIR/SP/G            HT/PER
                 (UTC) (F)     (DEG/KT/KT) (MB)    (FT/S)
CHAMBERS ISLAND  0200   76     150/  4/  9 1012.5R
S GREEN BAY BUOY 0100   79 76  160/ 14/ 16 1013.5F
N MID LAKE BUOY  0150   74 71  170/  8/ 10 1012.9S   0
NORTHPORT PIER   0200   74     160/  4/ 12 1012.9R
SISTER BAY       0214   74     170/ 10/ 14   N/A
ALGOMA LAKESHORE 0212          210/  9/ 10   N/A
KEWAUNEE LAKESHO 0200   67     180/  5/  6 1012.8R
SHEBOYGAN LAKESH 0200   71     180/  8/  8 1013.5R
PORT WASHINGTON  0200   73     130/  2/  2 1013.9R
ATWATER BUOY     0230   72     170/  6/  8 1015.0R
MILWAUKEE LAKESH 0215   73     160/  7/  8   N/A
KENOSHA   LAKESH 0200   78     170/  5/  5 1013.2R
$$

TC  - TEMPERATURE IN CELSIUS
VSB - VISIBILITY IN STATUTE MILES
WCI - WIND CHILL INDEX
HX  - HEAT INDEX




USA.gov is the U.S. government's official web portal to all federal, state and local government web resources and services.